Погода в Волчихе

Погода в Волчихе : погода сейчас, прогноз погоды и архив. Всё, что Вы хотите узнать о погоде в Волчихе!

Хотите узнать прогноз погоды в Волчихе? Тогда Вам сюда: Погода в Волчихе

Поиск расширенной информации на нашем сайте:

Другие новости

Новости СМИ2

Главная страница сайта

Новости сайта

02.10.2013

Напоминаем, что на нашем новом сайте вы можете получить высокодетализированные прогнозы погоды по пунктам России, СНГ и мира (включающие важные для авиации метеовеличины, такие как направление и скорость ветра, видимость, явления погоды, количество и форма облачности, нижняя и верхняя граница облачности), а также ознакомиться с разнообразными материалами по авиационной метеорологии и подборкой полезных ссылок на эту тему.

Сайт Метеоцентр.Азия посвящён разработке технологий оптимизации авиаметеорологического обслуживания, включая проектирование и перспективное создание нескольких автоматизированных авиаметеорологических систем:
- система выпуска высокодетальных прогностических карт явлений погоды для нижнего воздушного пространства по России и ближнему зарубежью;
- система верификации прогнозов TAF (выпускаемых синоптиками официальных АМСГ РФ и ближнего зарубежья) и AUTOTAF (выпускаемых сайтом Метеоцентр.Азия) - выявление ошибок, онлайн-сопоставление с фактической погодой METAR, автоматическое внесение коррективов в прогнозы при резком отклонении фактической погоды от прогноза, подсчёт оправдываемости прогнозов по элементам и в целом;
- система обработки, анализа и отображения авиаметеорологической информации для применения провайдерами метеорологической информации.


Погода в Волчихе - сегодня

Время (UTC), дата Ветер
(°,м/с) 
Видим.   Явления Облачность Т
(°С)
Тd
(°С)
f(%) Тe
(°С)
Pmin
(гПа)
dP
(гПа)
Po
(мм)
O2
(г/м3)
Тmin Tmax R s Состояние
почвы
15 13.01.17 220 (ЮЗ) 20000 м    10/0 верхняя 
[Cs]
-20.4 -22.1 86 -23  1033.9  0.7  754  330           
18 13.01.17 200 (Ю) 20000 м    10/0 верхняя 
[Cs]
-18.9 -21 83 -19  1033.7  754  328           
21 13.01.17 200 (Ю) 20000 м    10/0 средняя 
[As trans]
-17.1 -19 85 -21  1032.6  -0.9  753  325           
00 14.01.17 170 (Ю) 10 км  слаб. снег  10/0 средняя 
[As op]
-15.7 -17.6 85 -21  1031.9  -0.6  753  323  -22.7    0.4  47  неравномерный
сухой снег
100% 
03 14.01.17 190 (Ю) 10 км  слаб. снег  10/0 средняя 
[As op]
-14.6 -16.5 85 -20  1031.3  -0.4  753  322           
06 14.01.17 190 (Ю) 10 км  слаб. снег  10/0 средняя 
[As op]
-12.2 -14.1 86 -17  1030.5  -0.5  752  319           
09 14.01.17 200 (Ю) 10 км  слаб. снег  10/0 средняя 
[As op]
-9.8 -11.7 86 -14  1029.3  -1  751  315           
12 14.01.17 220 (ЮЗ) 10 км  слаб. снег  10/0 средняя 
[As op]
-9 -10.2 91 -13  1029.8  0.7  752  314    -9     
15 14.01.17 250 (З) 5{11}  10 км  слаб. снег  10/0 средняя 
[As op]
-11 -12.6 88 -16  1031.3  1.2  753  317           
18 14.01.17 240 (ЮЗ) 10 км  слаб. снег  10/0 средняя 
[As op]
-12.4 -13.9 89 -16  1033.3  1.8  754  320           
21 14.01.17 260 (З) 10 км  слаб. снег  10/0 средняя 
[As op]
-12.3 -13.8 89 -17  1035.1  1.8  756  320           
00 15.01.17 270 (З) 20000 м  {снег}  10/0 средняя 
[As op]
-13.9 -15.6 87 -17  1036.9  1.6  757  323  -13.9    0.8  57  неравномерный
сухой снег
100% 
03 15.01.17 250 (З) 10 км  слаб. снег  10/0 средняя 
[As op]
-13.7 -15.1 89 -17  1038.6  1.6  758  323  -14.1         
06 15.01.17 230 (ЮЗ) 20000 м  {снег}  10/0 средняя, верхняя 
[Ac As|Ci fib]
-15 -16.9 85 -17  1040.2  1.4  759  325           
09 15.01.17 220 (ЮЗ) 20000 м    6/0 верхняя 
[Ci fib]
-15.6 -18 82 -16  1041.2  760  326           
12 15.01.17 тихо ()   0200 м  туман  ясно 
-25.2 -27.6 80 -25  1042.5  0.1  760  339    -13.6  0.2     
15 15.01.17 210 (ЮЗ) 1000 м  дымка{туман}  10/0 средняя 
[Ac und]
-22.9 -25.4 80 -23  1042.1  760  336           
18 15.01.17 200 (Ю) 20000 м    10/0 средняя 
[Ac und]
-18.5 -20.7 83 -19  1040.8  -0.9  759  330           
21 15.01.17 200 (Ю) 20000 м    10/0 средняя 
[Ac und]
-17.9 -19.9 84 -22  1040  -0.7  759  329           
00 16.01.17 тихо ()   20000 м    10/0 средняя 
[Ac und]
-17.2 -19.2 84 -17  1039.6  -0.3  758  328  -27.1      58  неравномерный
сухой снег
100% 
03 16.01.17 220 (ЮЗ) 10 км  слаб. снег  10/0 средняя 
[As op]
-17.4 -19.3 85 -20  1039.5  -0.1  758  328           
06 16.01.17 210 (ЮЗ) 10 км  слаб. снег  10/0 средняя 
[As op]
-17.3 -19.4 84 -17  1039.3  -0.2  758  328           
09 16.01.17 240 (ЮЗ) 20000 м    10/0 средняя 
[As op]
-16.6 -18.7 84 -17  1039.2  758  327           
12 16.01.17 260 (З) 20000 м    10/0 средняя 
[As op]
-19.4 -21.5 83 -22  1039.6  0.1  758  331    -14  0.6     
15 16.01.17 230 (ЮЗ) 20000 м  слаб. снег  10/0 средняя 
[As op]
-17.4 -19.5 84 -21  1039.3  -0.2  758  328           
Время (UTC), дата Ветер
(°,м/с) 
Видим.   Явления Облачность Т
(°С)
Тd
(°С)
f(%) Тe
(°С)
Pmin
(гПа)
dP
(гПа)
Po
(мм)
O2
(г/м3)
Тmin Tmax R s Состояние
почвы

Для получения пояснительной информации подведите курсор к названию столбца.

ПОГОДА в Волчихе - архив

Всё, что Вы хотите узнать о погоде в Волчихе - удобно и подробно!

Выберите нужную дату (начиная с 1 января 2015* года) и нажмите кнопку "Найти".
Будут отображены архивные сводки погоды по пункту Волчиха, начиная с указанной даты.


Отображать данные в формате CSV (для использования в таблицах Excel)


Внимание! Наш архив погоды предназначен исключительно для личного некоммерческого использования в познавательных целях. Если Вам необходимы официальные справки о состоянии погоды (для производственных, юридических, коммерческих и т.п. целей), обращайтесь в органы Росгидромета.

*Примечание: данная дата относится к архиву по метеостанциям СССР (Россия, СНГ, Балтия).
Архив по метеостанциям Зарубежной Европы и Азии (кроме Китая) хранится 10 дней, по другим регионам земного шара (Китай, Африка, Америка, Австралия, Океания) - 1 день.

Волчиха - район местоположения метеостанции


Название, широта, долгота, высота метеостанции:
Волчиха 52°ш. 80.4°д. 208 м над ур. моря [Российская Федерация]

Дополнительная информация

В oтличие oт бoльшинства пoгoдных сайтoв мы публикуем пoдрoбную метеoинфoрмацию в детальнoм прoфессиoнальнoм фoрмате.

Характеристики температуры и влажнoсти вoздуха измеряются на высoте 2 м в тени вдали oт зданий и деревьев.
Скoрoсть ветра измеряется на высoте 10 м (на урoвне рoста челoвека скoрoсть ветра ниже в 1.5-2 раза). Если метеoстанция нахoдится в гoрoде или в лесу, тo скoрoсть ветра занижена на 2-4 м/с пo сравнению с oткрытым местoм. Скoрoсть ветра над акватoриями крупных рек и oзёр, а также на вершинах хoлмoв на 2-5 м/с выше, чем в oбычных услoвиях.
Атмoсфернoе давление в разных тoчках местнoсти мoжет значительнo oтличаться oт давления на метеoстанции, в зависимoсти oт услoвий рельефа (при пoдъёме на 10 м давление пoнижается примернo на 1 мм рт.ст.).